Ek-star — LAMT5 — position and weather

sailwx.info

Track history (hours):
 
Tides and Currents Weather Stations Pressure Air Temp Water Temp Dewpoint Dewpoint Depression Visibility Wind Speed Wind Dir Waves Ship Positions

Ek-star

Last reported at 2014-Jul-28 20:20 UTC. Time now 2014-Jul-28 22:38 UTC.
Position N 55°34' E 009°54'.

Length 135 m; draft 6.1 m.

Type: Tanker. MMSI: 257433000.

Date/timePositionNaut miles runAvg speedWind from/ knotsBaromVisibWave heightAir tempDewpointWater temp
2014-Jul-28 20:20N 55°34' E 009°54'2513.0
2014-Jul-28 18:24N 55°40' E 010°38'911.1
2014-Jul-28 17:33N 55°48' E 010°48'1413.3
2014-Jul-28 16:31N 55°59' E 011°02'1413.7
2014-Jul-28 15:29N 56°11' E 011°16'1313.9
2014-Jul-28 14:32N 56°22' E 011°27'1413.9
2014-Jul-28 13:33N 56°34' E 011°39'1312.9
2014-Jul-28 12:33N 56°45' E 011°50'1313.4
2014-Jul-28 11:33N 56°58' E 011°44'1313.2
2014-Jul-28 10:33N 57°11' E 011°35'1313.4
2014-Jul-28 09:33N 57°23' E 011°27'1312.8
2014-Jul-28 08:33N 57°33' E 011°12'1313.3
2014-Jul-28 07:33N 57°42' E 010°54'1312.6
2014-Jul-28 06:33N 57°47' E 010°32'1414.0
2014-Jul-28 05:33N 57°47' E 010°06'26713.1
2014-Jul-27 09:09N 54°17' E 005°11'1313.6
2014-Jul-27 08:11N 54°06' E 004°59'813.1
2014-Jul-27 07:33N 53°58' E 004°55'3113.5
2014-Jul-27 05:15N 53°27' E 004°44'3914.3
2014-Jul-27 02:29N 52°52' E 004°15'1813.3
2014-Jul-27 01:06N 52°37' E 003°56'2012.5
2014-Jul-26 23:29N 52°23' E 003°33'1212.2
2014-Jul-26 22:32N 52°12' E 003°28'1211.6
2014-Jul-26 21:30N 51°60' E 003°23'1111.3
2014-Jul-26 20:33N 51°50' E 003°18'9 8.9
2014-Jul-26 19:33N 51°41' E 003°16'1010.4
2014-Jul-26 18:33N 51°32' E 003°25'1110.8
2014-Jul-26 17:34N 51°27' E 003°40'1111.3
2014-Jul-26 16:34N 51°25' E 003°58'1110.6
2014-Jul-26 15:34N 51°21' E 004°14'2 2.1
2014-Jul-26 14:34N 51°21' E 004°17'0 0.2
2014-Jul-26 13:34N 51°21' E 004°17'2 1.8
2014-Jul-26 12:34N 51°19' E 004°19'3 3.1
2014-Jul-26 11:33N 51°16' E 004°21'0 0.0
2014-Jul-26 10:33N 51°16' E 004°21'0 0.0
2014-Jul-26 09:33N 51°16' E 004°21'0 0.0
2014-Jul-26 08:33N 51°16' E 004°21'0 0.0
2014-Jul-26 07:33N 51°16' E 004°21'0 0.0
2014-Jul-26 06:33N 51°16' E 004°21'0 0.0
2014-Jul-26 05:33N 51°16' E 004°21'0 0.0
2014-Jul-26 04:33N 51°16' E 004°21'0 0.0
2014-Jul-26 03:33N 51°16' E 004°21'0 0.0
2014-Jul-26 02:33N 51°16' E 004°21'0 0.0
2014-Jul-26 01:33N 51°16' E 004°21'0 0.0
2014-Jul-26 00:33N 51°16' E 004°21'0 0.0
2014-Jul-25 23:33N 51°16' E 004°21'0 0.0
2014-Jul-25 22:33N 51°16' E 004°21'0 0.0
2014-Jul-25 21:33N 51°16' E 004°21'0 0.0
2014-Jul-25 20:33N 51°16' E 004°21'0 0.0
2014-Jul-25 19:33N 51°16' E 004°21'0 0.0
2014-Jul-25 18:33N 51°16' E 004°21'0 0.0
2014-Jul-25 17:33N 51°16' E 004°21'0 0.0
2014-Jul-25 16:33N 51°16' E 004°21'0 0.0
2014-Jul-25 15:33N 51°16' E 004°21'0 0.0
2014-Jul-25 14:33N 51°16' E 004°21'0 0.0
2014-Jul-25 13:33N 51°16' E 004°21'0 0.0
2014-Jul-25 12:33N 51°16' E 004°21'0 0.0
2014-Jul-25 11:33N 51°16' E 004°21'0 0.0
2014-Jul-25 10:33N 51°16' E 004°21'0 0.0
2014-Jul-25 09:33N 51°16' E 004°21'0 0.0
2014-Jul-25 08:33N 51°16' E 004°21'0 0.0
2014-Jul-25 07:33N 51°16' E 004°21'0 0.0
2014-Jul-25 06:33N 51°16' E 004°21'0 0.0
2014-Jul-25 05:33N 51°16' E 004°21'0 0.0
2014-Jul-25 04:33N 51°16' E 004°21'0 0.0
2014-Jul-25 03:33N 51°16' E 004°21'0 0.0
2014-Jul-25 02:33N 51°16' E 004°21'0 0.0
2014-Jul-25 01:33N 51°16' E 004°21'0 0.0
2014-Jul-25 00:33N 51°16' E 004°21'0 0.0
2014-Jul-24 23:33N 51°16' E 004°21'1 1.0
2014-Jul-24 22:33N 51°17' E 004°20'4 4.3
2014-Jul-24 21:33N 51°21' E 004°17'1 0.7
2014-Jul-24 20:34N 51°21' E 004°16'7 7.0
2014-Jul-24 19:33N 51°22' E 004°05'6 6.3
2014-Jul-24 18:33N 51°22' E 003°55'9 9.0
2014-Jul-24 17:33N 51°25' E 003°42'1010.1
2014-Jul-24 16:33N 51°24' E 003°25'1110.6
2014-Jul-24 15:33N 51°24' E 003°08'7 7.4
2014-Jul-24 14:33N 51°31' E 003°05'1212.0
2014-Jul-24 13:33N 51°41' E 003°15'8 7.7
2014-Jul-24 12:29N 51°48' E 003°22'0 0.1
2014-Jul-24 11:33N 51°48' E 003°22'0 0.2
2014-Jul-24 10:33N 51°48' E 003°22'0 0.0
2014-Jul-24 09:30N 51°48' E 003°22'0 0.0
2014-Jul-24 08:33N 51°48' E 003°22'0 0.0
2014-Jul-24 07:30N 51°48' E 003°22'0 0.0
2014-Jul-24 06:30N 51°48' E 003°22'0 0.0
2014-Jul-24 05:30N 51°48' E 003°22'0 0.0
2014-Jul-24 04:29N 51°48' E 003°22'0 0.1
2014-Jul-24 03:26N 51°48' E 003°22'0 0.1
2014-Jul-24 02:26N 51°48' E 003°22'0 0.0
2014-Jul-24 01:23N 51°48' E 003°22'0 0.1
2014-Jul-24 00:32N 51°48' E 003°22'0 0.0
2014-Jul-23 23:23N 51°48' E 003°22'0 0.1
2014-Jul-23 22:17N 51°48' E 003°23'0 0.1
2014-Jul-23 21:32N 51°48' E 003°22'0 0.0
2014-Jul-23 20:26N 51°48' E 003°22'0 0.0
2014-Jul-23 19:26N 51°48' E 003°22'0 0.0
2014-Jul-23 18:32N 51°48' E 003°22'0 0.0
2014-Jul-23 17:32N 51°48' E 003°22'0 0.0
2014-Jul-23 16:32N 51°48' E 003°22'0 0.0
2014-Jul-23 15:32N 51°48' E 003°22'0 0.1
2014-Jul-23 14:32N 51°48' E 003°22'0 0.0
2014-Jul-23 13:32N 51°48' E 003°22'0 0.0
2014-Jul-23 12:32N 51°48' E 003°22'0 0.0
2014-Jul-23 11:29N 51°48' E 003°22'0 0.0
2014-Jul-23 10:32N 51°48' E 003°22'0 0.1
2014-Jul-23 09:11N 51°48' E 003°22'0 0.0
2014-Jul-23 08:26N 51°48' E 003°22'0 0.0
2014-Jul-23 07:32N 51°48' E 003°22'0 0.0
2014-Jul-23 06:32N 51°48' E 003°22'0 0.0
2014-Jul-23 05:32N 51°48' E 003°22'0 0.1
2014-Jul-23 04:28N 51°48' E 003°22'910.2
2014-Jul-23 03:33N 51°47' E 003°07'4010.0
2014-Jul-22 23:33N 52°22' E 002°36'1111.4
2014-Jul-22 22:33N 52°33' E 002°30'1211.7
2014-Jul-22 21:33N 52°44' E 002°25'1212.0
2014-Jul-22 20:33N 52°55' E 002°19'1212.2
2014-Jul-22 19:33N 53°02' E 002°02'1412.5
2014-Jul-22 18:26N 53°07' E 001°40'2512.9
2014-Jul-22 16:31N 53°23' E 001°08'4313.5
2014-Jul-22 13:20N 53°59' E 000°29'1113.7
2014-Jul-22 12:33N 54°08' E 000°19'1413.6
2014-Jul-22 11:33N 54°19' E 000°06'1313.3
2014-Jul-22 10:33N 54°30' W 000°06'1313.0
2014-Jul-22 09:33N 54°41' W 000°18'1712.6
2014-Jul-22 08:12N 54°56' W 000°35'812.5
2014-Jul-22 07:32N 55°03' W 000°43'1212.2
2014-Jul-22 06:32N 55°13' W 000°54'1212.4
2014-Jul-22 05:32N 55°23' W 001°05'1212.2
2014-Jul-22 04:31N 55°34' W 001°17'6311.8
2014-Jul-21 23:10N 56°04' W 002°57'711.9
2014-Jul-21 22:33N 56°03' W 003°10'1111.3
2014-Jul-21 21:33N 56°01' W 003°30'6 6.5
2014-Jul-21 20:33N 56°02' W 003°41'0 0.0
2014-Jul-21 20:18N 56°02' W 003°41'0 0.5
2014-Jul-21 19:33N 56°02' W 003°42'0 0.0
2014-Jul-21 18:33N 56°02' W 003°42'0 0.0
2014-Jul-21 17:33N 56°02' W 003°42'0 0.0
2014-Jul-21 16:33N 56°02' W 003°42'0 0.0
2014-Jul-21 15:33N 56°02' W 003°42'0 0.0
2014-Jul-21 14:33N 56°02' W 003°42'0 0.0
2014-Jul-21 13:33N 56°02' W 003°42'0 0.0
2014-Jul-21 12:30N 56°02' W 003°42'0 0.0
2014-Jul-21 11:33N 56°02' W 003°42'0 0.0
2014-Jul-21 10:30N 56°02' W 003°42'0 0.0
2014-Jul-21 09:33N 56°02' W 003°42'0 0.0
2014-Jul-21 08:30N 56°02' W 003°42'0 0.0
2014-Jul-21 07:33N 56°02' W 003°42'0 0.0
2014-Jul-21 06:33N 56°02' W 003°42'0 0.0
2014-Jul-21 05:33N 56°02' W 003°42'0 0.0
2014-Jul-21 04:33N 56°02' W 003°42'0 0.0
2014-Jul-21 03:30N 56°02' W 003°42'0 0.0
2014-Jul-21 02:33N 56°02' W 003°42'0 0.0
2014-Jul-21 01:33N 56°02' W 003°42'0 0.0
2014-Jul-21 00:30N 56°02' W 003°42'0 0.0
2014-Jul-20 23:33N 56°02' W 003°42'0 0.0
2014-Jul-20 22:33N 56°02' W 003°42'0 0.0
2014-Jul-20 21:33N 56°02' W 003°42'0 0.0
2014-Jul-20 20:33N 56°02' W 003°42'0 0.0
2014-Jul-20 19:33N 56°02' W 003°42'0 0.0
2014-Jul-20 18:33N 56°02' W 003°42'0 0.0
2014-Jul-20 17:33N 56°02' W 003°42'0 0.4
2014-Jul-20 16:34N 56°02' W 003°41'1 1.2
2014-Jul-20 15:33N 56°02' W 003°39'10 9.8
2014-Jul-20 14:32N 56°01' W 003°21'40813.5
2014-Jul-19 08:18N 57°40' E 008°42'2413.8
2014-Jul-19 06:33N 57°49' E 009°24'2814.1
2014-Jul-19 04:32N 58°01' E 010°12'1414.1
2014-Jul-19 03:33N 58°06' E 010°36'1414.2
2014-Jul-19 02:33N 58°12' E 011°01'  
Track history (hours):
 
Tides and Currents Weather Stations Pressure Air Temp Water Temp Dewpoint Dewpoint Depression Visibility Wind Speed Wind Dir Waves Ship Positions

Ek-star

Last reported at 2014-Jul-28 20:20 UTC. Time now 2014-Jul-28 22:38 UTC.
Position N 55°34' E 009°54'.

Length 135 m; draft 6.1 m.

Type: Tanker. MMSI: 257433000.

Date/timePositionNaut miles runAvg speedWind from/ knotsBaromVisibWave heightAir tempDewpointWater temp
2014-Jul-28 20:20N 55°34' E 009°54'2513.0
2014-Jul-28 18:24N 55°40' E 010°38'911.1
2014-Jul-28 17:33N 55°48' E 010°48'1413.3
2014-Jul-28 16:31N 55°59' E 011°02'1413.7
2014-Jul-28 15:29N 56°11' E 011°16'1313.9
2014-Jul-28 14:32N 56°22' E 011°27'1413.9
2014-Jul-28 13:33N 56°34' E 011°39'1312.9
2014-Jul-28 12:33N 56°45' E 011°50'1313.4
2014-Jul-28 11:33N 56°58' E 011°44'1313.2
2014-Jul-28 10:33N 57°11' E 011°35'1313.4
2014-Jul-28 09:33N 57°23' E 011°27'1312.8
2014-Jul-28 08:33N 57°33' E 011°12'1313.3
2014-Jul-28 07:33N 57°42' E 010°54'1312.6
2014-Jul-28 06:33N 57°47' E 010°32'1414.0
2014-Jul-28 05:33N 57°47' E 010°06'26713.1
2014-Jul-27 09:09N 54°17' E 005°11'1313.6
2014-Jul-27 08:11N 54°06' E 004°59'813.1
2014-Jul-27 07:33N 53°58' E 004°55'3113.5
2014-Jul-27 05:15N 53°27' E 004°44'3914.3
2014-Jul-27 02:29N 52°52' E 004°15'1813.3
2014-Jul-27 01:06N 52°37' E 003°56'2012.5
2014-Jul-26 23:29N 52°23' E 003°33'1212.2
2014-Jul-26 22:32N 52°12' E 003°28'1211.6
2014-Jul-26 21:30N 51°60' E 003°23'1111.3
2014-Jul-26 20:33N 51°50' E 003°18'9 8.9
2014-Jul-26 19:33N 51°41' E 003°16'1010.4
2014-Jul-26 18:33N 51°32' E 003°25'1110.8
2014-Jul-26 17:34N 51°27' E 003°40'1111.3
2014-Jul-26 16:34N 51°25' E 003°58'1110.6
2014-Jul-26 15:34N 51°21' E 004°14'2 2.1
2014-Jul-26 14:34N 51°21' E 004°17'0 0.2
2014-Jul-26 13:34N 51°21' E 004°17'2 1.8
2014-Jul-26 12:34N 51°19' E 004°19'3 3.1
2014-Jul-26 11:33N 51°16' E 004°21'0 0.0
2014-Jul-26 10:33N 51°16' E 004°21'0 0.0
2014-Jul-26 09:33N 51°16' E 004°21'0 0.0
2014-Jul-26 08:33N 51°16' E 004°21'0 0.0
2014-Jul-26 07:33N 51°16' E 004°21'0 0.0
2014-Jul-26 06:33N 51°16' E 004°21'0 0.0
2014-Jul-26 05:33N 51°16' E 004°21'0 0.0
2014-Jul-26 04:33N 51°16' E 004°21'0 0.0
2014-Jul-26 03:33N 51°16' E 004°21'0 0.0
2014-Jul-26 02:33N 51°16' E 004°21'0 0.0
2014-Jul-26 01:33N 51°16' E 004°21'0 0.0
2014-Jul-26 00:33N 51°16' E 004°21'0 0.0
2014-Jul-25 23:33N 51°16' E 004°21'0 0.0
2014-Jul-25 22:33N 51°16' E 004°21'0 0.0
2014-Jul-25 21:33N 51°16' E 004°21'0 0.0
2014-Jul-25 20:33N 51°16' E 004°21'0 0.0
2014-Jul-25 19:33N 51°16' E 004°21'0 0.0
2014-Jul-25 18:33N 51°16' E 004°21'0 0.0
2014-Jul-25 17:33N 51°16' E 004°21'0 0.0
2014-Jul-25 16:33N 51°16' E 004°21'0 0.0
2014-Jul-25 15:33N 51°16' E 004°21'0 0.0
2014-Jul-25 14:33N 51°16' E 004°21'0 0.0
2014-Jul-25 13:33N 51°16' E 004°21'0 0.0
2014-Jul-25 12:33N 51°16' E 004°21'0 0.0
2014-Jul-25 11:33N 51°16' E 004°21'0 0.0
2014-Jul-25 10:33N 51°16' E 004°21'0 0.0
2014-Jul-25 09:33N 51°16' E 004°21'0 0.0
2014-Jul-25 08:33N 51°16' E 004°21'0 0.0
2014-Jul-25 07:33N 51°16' E 004°21'0 0.0
2014-Jul-25 06:33N 51°16' E 004°21'0 0.0
2014-Jul-25 05:33N 51°16' E 004°21'0 0.0
2014-Jul-25 04:33N 51°16' E 004°21'0 0.0
2014-Jul-25 03:33N 51°16' E 004°21'0 0.0
2014-Jul-25 02:33N 51°16' E 004°21'0 0.0
2014-Jul-25 01:33N 51°16' E 004°21'0 0.0
2014-Jul-25 00:33N 51°16' E 004°21'0 0.0
2014-Jul-24 23:33N 51°16' E 004°21'1 1.0
2014-Jul-24 22:33N 51°17' E 004°20'4 4.3
2014-Jul-24 21:33N 51°21' E 004°17'1 0.7
2014-Jul-24 20:34N 51°21' E 004°16'7 7.0
2014-Jul-24 19:33N 51°22' E 004°05'6 6.3
2014-Jul-24 18:33N 51°22' E 003°55'9 9.0
2014-Jul-24 17:33N 51°25' E 003°42'1010.1
2014-Jul-24 16:33N 51°24' E 003°25'1110.6
2014-Jul-24 15:33N 51°24' E 003°08'7 7.4
2014-Jul-24 14:33N 51°31' E 003°05'1212.0
2014-Jul-24 13:33N 51°41' E 003°15'8 7.7
2014-Jul-24 12:29N 51°48' E 003°22'0 0.1
2014-Jul-24 11:33N 51°48' E 003°22'0 0.2
2014-Jul-24 10:33N 51°48' E 003°22'0 0.0
2014-Jul-24 09:30N 51°48' E 003°22'0 0.0
2014-Jul-24 08:33N 51°48' E 003°22'0 0.0
2014-Jul-24 07:30N 51°48' E 003°22'0 0.0
2014-Jul-24 06:30N 51°48' E 003°22'0 0.0
2014-Jul-24 05:30N 51°48' E 003°22'0 0.0
2014-Jul-24 04:29N 51°48' E 003°22'0 0.1
2014-Jul-24 03:26N 51°48' E 003°22'0 0.1
2014-Jul-24 02:26N 51°48' E 003°22'0 0.0
2014-Jul-24 01:23N 51°48' E 003°22'0 0.1
2014-Jul-24 00:32N 51°48' E 003°22'0 0.0
2014-Jul-23 23:23N 51°48' E 003°22'0 0.1
2014-Jul-23 22:17N 51°48' E 003°23'0 0.1
2014-Jul-23 21:32N 51°48' E 003°22'0 0.0
2014-Jul-23 20:26N 51°48' E 003°22'0 0.0
2014-Jul-23 19:26N 51°48' E 003°22'0 0.0
2014-Jul-23 18:32N 51°48' E 003°22'0 0.0
2014-Jul-23 17:32N 51°48' E 003°22'0 0.0
2014-Jul-23 16:32N 51°48' E 003°22'0 0.0
2014-Jul-23 15:32N 51°48' E 003°22'0 0.1
2014-Jul-23 14:32N 51°48' E 003°22'0 0.0
2014-Jul-23 13:32N 51°48' E 003°22'0 0.0
2014-Jul-23 12:32N 51°48' E 003°22'0 0.0
2014-Jul-23 11:29N 51°48' E 003°22'0 0.0
2014-Jul-23 10:32N 51°48' E 003°22'0 0.1
2014-Jul-23 09:11N 51°48' E 003°22'0 0.0
2014-Jul-23 08:26N 51°48' E 003°22'0 0.0
2014-Jul-23 07:32N 51°48' E 003°22'0 0.0
2014-Jul-23 06:32N 51°48' E 003°22'0 0.0
2014-Jul-23 05:32N 51°48' E 003°22'0 0.1
2014-Jul-23 04:28N 51°48' E 003°22'910.2
2014-Jul-23 03:33N 51°47' E 003°07'4010.0
2014-Jul-22 23:33N 52°22' E 002°36'1111.4
2014-Jul-22 22:33N 52°33' E 002°30'1211.7
2014-Jul-22 21:33N 52°44' E 002°25'1212.0
2014-Jul-22 20:33N 52°55' E 002°19'1212.2
2014-Jul-22 19:33N 53°02' E 002°02'1412.5
2014-Jul-22 18:26N 53°07' E 001°40'2512.9
2014-Jul-22 16:31N 53°23' E 001°08'4313.5
2014-Jul-22 13:20N 53°59' E 000°29'1113.7
2014-Jul-22 12:33N 54°08' E 000°19'1413.6
2014-Jul-22 11:33N 54°19' E 000°06'1313.3
2014-Jul-22 10:33N 54°30' W 000°06'1313.0
2014-Jul-22 09:33N 54°41' W 000°18'1712.6
2014-Jul-22 08:12N 54°56' W 000°35'812.5
2014-Jul-22 07:32N 55°03' W 000°43'1212.2
2014-Jul-22 06:32N 55°13' W 000°54'1212.4
2014-Jul-22 05:32N 55°23' W 001°05'1212.2
2014-Jul-22 04:31N 55°34' W 001°17'6311.8
2014-Jul-21 23:10N 56°04' W 002°57'711.9
2014-Jul-21 22:33N 56°03' W 003°10'1111.3
2014-Jul-21 21:33N 56°01' W 003°30'6 6.5
2014-Jul-21 20:33N 56°02' W 003°41'0 0.0
2014-Jul-21 20:18N 56°02' W 003°41'0 0.5
2014-Jul-21 19:33N 56°02' W 003°42'0 0.0
2014-Jul-21 18:33N 56°02' W 003°42'0 0.0
2014-Jul-21 17:33N 56°02' W 003°42'0 0.0
2014-Jul-21 16:33N 56°02' W 003°42'0 0.0
2014-Jul-21 15:33N 56°02' W 003°42'0 0.0
2014-Jul-21 14:33N 56°02' W 003°42'0 0.0
2014-Jul-21 13:33N 56°02' W 003°42'0 0.0
2014-Jul-21 12:30N 56°02' W 003°42'0 0.0
2014-Jul-21 11:33N 56°02' W 003°42'0 0.0
2014-Jul-21 10:30N 56°02' W 003°42'0 0.0
2014-Jul-21 09:33N 56°02' W 003°42'0 0.0
2014-Jul-21 08:30N 56°02' W 003°42'0 0.0
2014-Jul-21 07:33N 56°02' W 003°42'0 0.0
2014-Jul-21 06:33N 56°02' W 003°42'0 0.0
2014-Jul-21 05:33N 56°02' W 003°42'0 0.0
2014-Jul-21 04:33N 56°02' W 003°42'0 0.0
2014-Jul-21 03:30N 56°02' W 003°42'0 0.0
2014-Jul-21 02:33N 56°02' W 003°42'0 0.0
2014-Jul-21 01:33N 56°02' W 003°42'0 0.0
2014-Jul-21 00:30N 56°02' W 003°42'0 0.0
2014-Jul-20 23:33N 56°02' W 003°42'0 0.0
2014-Jul-20 22:33N 56°02' W 003°42'0 0.0
2014-Jul-20 21:33N 56°02' W 003°42'0 0.0
2014-Jul-20 20:33N 56°02' W 003°42'0 0.0
2014-Jul-20 19:33N 56°02' W 003°42'0 0.0
2014-Jul-20 18:33N 56°02' W 003°42'0 0.0
2014-Jul-20 17:33N 56°02' W 003°42'0 0.4
2014-Jul-20 16:34N 56°02' W 003°41'1 1.2
2014-Jul-20 15:33N 56°02' W 003°39'10 9.8
2014-Jul-20 14:32N 56°01' W 003°21'40813.5
2014-Jul-19 08:18N 57°40' E 008°42'2413.8
2014-Jul-19 06:33N 57°49' E 009°24'2814.1
2014-Jul-19 04:32N 58°01' E 010°12'1414.1
2014-Jul-19 03:33N 58°06' E 010°36'1414.2
2014-Jul-19 02:33N 58°12' E 011°01'  

Dump ship's entire track history